Change the Weather History Date:

Saturday, March 9, 2013

  Actual Average (KLFK) Record (KLFK)
Temperature  
Mean Temperature 64 °F 58 °F  
Max Temperature 73 °F 69 °F 89 °F (1911)
Min Temperature 56 °F 47 °F 23 °F (1932)
Degree Days  
Heating Degree Days 0 8  
Month to date heating degree days 81  
Since 1 July heating degree days 1715  
Cooling Degree Days 0 1  
Month to date cooling degree days 9  
Year to date cooling degree days 28  
Growing Degree Days 14 (Base 50)    
Moisture  
Dew Point 57 °F    
Average Humidity 78    
Maximum Humidity 91    
Minimum Humidity 60    
Precipitation  
Precipitation 0.00 in 0.13 in 1.85 in (1926)
Month to date precipitation 1.18  
Year to date precipitation 9.23  
Snow  
Snow 0.00 in - - ()
Month to date snowfall  
Since 1 July snowfall  
Snow Depth -    
Sea Level Pressure  
Sea Level Pressure 29.99 in    
Wind  
Wind Speed 4 mph (SE)    
Max Wind Speed 17 mph    
Max Gust Speed 25 mph    
Visibility 10 miles    
Events      
T = Trace of Precipitation, MM = Missing Value Source: NWS Daily Summary

Daily Weather History Graph

Daily Weather History Graph

Search for Another Location

Airport or City:

Trip Planner

Search our weather history database for the weather conditions in past years. The results will help you decide how hot, cold, wet, or windy it might be!

Date:

Astronomy

Mar. 09, 2013 Rise Set
Actual Time 6:33 AM CST 6:20 PM CST
Civil Twilight 6:08 AM CST 6:44 PM CST
Nautical Twilight 5:40 AM CST 7:12 PM CST
Astronomical Twilight 5:12 AM CST 7:40 PM CST
Moon 4:50 AM CST (3/9) 4:28 PM CST (3/9)
Length of Visible Light 12h 35m
Length of Day
11h 47m
Waning Crescent, 5% of the Moon is Illuminated
Mar 9
Waning Crescent
Mar 11
New
Mar 19
First Quarter
Mar 27
Full
Apr 2
Last Quarter

Hourly Weather History & Observations

Time (CST) Temp. Dew Point Humidity Pressure Visibility Wind Dir Wind Speed Gust Speed Precip Events Conditions
12:15 AM 59.2 °F 48.0 °F 66% 30.13 in 10.0 mi Calm Calm - N/A   Clear
12:35 AM 58.6 °F 48.7 °F 70% 30.13 in 10.0 mi Calm Calm - N/A   Clear
12:55 AM 58.5 °F 49.3 °F 72% 30.13 in 10.0 mi Calm Calm - N/A   Clear
1:15 AM 58.3 °F 49.6 °F 73% 30.12 in 10.0 mi Calm Calm - N/A   Clear
1:35 AM 57.9 °F 50.2 °F 75% 30.12 in 10.0 mi Calm Calm - N/A   Clear
1:55 AM 57.9 °F 50.4 °F 76% 30.11 in 10.0 mi Calm Calm - N/A   Clear
2:15 AM 57.2 °F 50.9 °F 79% 30.11 in 10.0 mi Calm Calm - N/A   Clear
2:35 AM 57.0 °F 50.7 °F 79% 30.09 in 10.0 mi Calm Calm - N/A   Clear
2:55 AM 56.7 °F 50.5 °F 80% 30.09 in 10.0 mi Calm Calm - N/A   Clear
3:15 AM 56.8 °F 50.4 °F 79% 30.08 in 10.0 mi Calm Calm - N/A   Clear
3:35 AM 56.8 °F 50.2 °F 78% 30.07 in 10.0 mi Calm Calm - N/A   Clear
3:55 AM 56.8 °F 50.2 °F 78% 30.07 in 10.0 mi Calm Calm - N/A   Clear
4:15 AM 56.7 °F 50.5 °F 80% 30.06 in 10.0 mi Calm Calm - N/A   Scattered Clouds
4:35 AM 57.0 °F 51.1 °F 81% 30.06 in 10.0 mi Calm Calm - N/A   Mostly Cloudy
4:55 AM 57.2 °F 51.4 °F 81% 30.06 in 10.0 mi East 3.5 mph - N/A   Mostly Cloudy
5:15 AM 57.2 °F 52.2 °F 83% 30.06 in 10.0 mi East 3.5 mph - N/A   Overcast
5:35 AM 57.4 °F 52.7 °F 84% 30.06 in 10.0 mi East 3.5 mph - N/A   Mostly Cloudy
5:55 AM 57.6 °F 53.2 °F 85% 30.06 in 10.0 mi ESE 3.5 mph - N/A   Mostly Cloudy
6:15 AM 57.9 °F 54.0 °F 87% 30.06 in 10.0 mi East 4.6 mph - N/A   Mostly Cloudy
6:35 AM 58.3 °F 54.5 °F 87% 30.06 in 10.0 mi ESE 4.6 mph - N/A   Overcast
6:55 AM 58.5 °F 55.0 °F 88% 30.06 in 10.0 mi ESE 5.8 mph - N/A   Overcast
7:15 AM 58.6 °F 55.4 °F 89% 30.06 in 7.0 mi ESE 5.8 mph - N/A   Overcast
7:35 AM 58.8 °F 55.8 °F 90% 30.06 in 7.0 mi ESE 6.9 mph - N/A   Overcast
7:55 AM 59.0 °F 55.9 °F 90% 30.06 in 7.0 mi ESE 6.9 mph - N/A   Mostly Cloudy
8:15 AM 59.2 °F 56.3 °F 90% 30.06 in 7.0 mi ESE 6.9 mph - N/A   Mostly Cloudy
8:35 AM 59.2 °F 56.5 °F 91% 30.06 in 7.0 mi ESE 8.1 mph - N/A   Mostly Cloudy
8:55 AM 59.7 °F 57.0 °F 91% 30.06 in 7.0 mi ESE 6.9 mph - N/A   Mostly Cloudy
9:15 AM 60.4 °F 57.6 °F 90% 30.06 in 7.0 mi ESE 8.1 mph - N/A   Overcast
9:35 AM 61.2 °F 57.9 °F 89% 30.06 in 7.0 mi ESE 6.9 mph - N/A   Overcast
9:55 AM 61.9 °F 58.3 °F 88% 30.05 in 7.0 mi East 4.6 mph - N/A   Overcast
10:15 AM 62.6 °F 58.8 °F 87% 30.05 in 7.0 mi SE 3.5 mph - N/A   Overcast
10:35 AM 63.0 °F 59.0 °F 87% 30.06 in 7.0 mi Calm Calm - N/A   Overcast
10:55 AM 63.5 °F 59.5 °F 87% 30.06 in 10.0 mi Calm Calm - N/A   Overcast
11:15 AM 64.6 °F 60.1 °F 85% 30.04 in 10.0 mi SE 5.8 mph - N/A   Mostly Cloudy
11:35 AM 66.0 °F 60.6 °F 83% 30.03 in 10.0 mi ESE 8.1 mph - N/A   Scattered Clouds
11:55 AM 66.9 °F 61.0 °F 81% 30.02 in 10.0 mi SE 6.9 mph - N/A   Scattered Clouds
12:15 PM 68.2 °F 61.2 °F 78% 30.02 in 10.0 mi South 9.2 mph 17.3 mph N/A   Mostly Cloudy
12:35 PM 68.7 °F 61.2 °F 77% 30.01 in 10.0 mi SSE 13.8 mph 18.4 mph N/A   Overcast
12:55 PM 70.3 °F 61.2 °F 73% 29.99 in 10.0 mi South 11.5 mph 17.3 mph N/A   Mostly Cloudy
1:15 PM 71.8 °F 60.8 °F 68% 29.97 in 10.0 mi SSE 13.8 mph 25.3 mph N/A   Mostly Cloudy
1:35 PM 72.1 °F 60.6 °F 67% 29.96 in 10.0 mi SSE 13.8 mph 21.9 mph N/A   Overcast
1:55 PM 72.5 °F 60.8 °F 67% 29.95 in 10.0 mi South 9.2 mph 17.3 mph N/A   Mostly Cloudy
2:15 PM 73.6 °F 60.8 °F 64% 29.94 in 10.0 mi SSE 11.5 mph 21.9 mph N/A   Overcast
2:35 PM 72.7 °F 60.4 °F 65% 29.93 in 10.0 mi SSE 9.2 mph 17.3 mph N/A   Overcast
2:55 PM 73.0 °F 59.7 °F 63% 29.93 in 10.0 mi South 15.0 mph 24.2 mph N/A   Overcast
3:15 PM 73.4 °F 58.8 °F 60% 29.92 in 10.0 mi SSE 9.2 mph 19.6 mph N/A   Mostly Cloudy
3:35 PM 73.0 °F 59.2 °F 62% 29.92 in 10.0 mi South 16.1 mph 24.2 mph N/A   Mostly Cloudy
3:55 PM 72.5 °F 59.2 °F 63% 29.92 in 10.0 mi South 17.3 mph 24.2 mph N/A   Scattered Clouds
4:15 PM 72.1 °F 59.2 °F 64% 29.92 in 10.0 mi South 10.4 mph 23.0 mph N/A   Mostly Cloudy
4:35 PM 71.6 °F 59.4 °F 65% 29.92 in 10.0 mi South 9.2 mph 21.9 mph N/A   Overcast
4:55 PM 71.6 °F 59.9 °F 66% 29.92 in 10.0 mi SSE 10.4 mph - N/A   Mostly Cloudy
5:15 PM 70.7 °F 59.9 °F 69% 29.90 in 10.0 mi SSE 11.5 mph 18.4 mph N/A   Overcast
5:35 PM 70.3 °F 59.9 °F 69% 29.90 in 10.0 mi South 8.1 mph 17.3 mph N/A   Overcast
5:55 PM 69.8 °F 60.1 °F 71% 29.88 in 10.0 mi SE 8.1 mph - N/A   Mostly Cloudy
6:15 PM 69.3 °F 60.4 °F 73% 29.90 in 10.0 mi SSE 6.9 mph - N/A   Overcast
6:35 PM 68.9 °F 60.6 °F 75% 29.90 in 10.0 mi SSE 8.1 mph - N/A   Overcast
6:55 PM 68.4 °F 60.8 °F 77% 29.90 in 10.0 mi SE 8.1 mph 16.1 mph N/A   Overcast
7:15 PM 68.2 °F 60.8 °F 77% 29.89 in 10.0 mi SSE 10.4 mph 17.3 mph N/A   Overcast
7:35 PM 68.0 °F 60.8 °F 78% 29.87 in 10.0 mi SSE 6.9 mph - N/A   Overcast
7:55 PM 68.0 °F 60.8 °F 78% 29.88 in 10.0 mi SSE 6.9 mph - N/A   Overcast
8:15 PM 68.0 °F 61.0 °F 78% 29.88 in 10.0 mi SE 8.1 mph 18.4 mph N/A   Overcast
8:35 PM 68.0 °F 61.2 °F 79% 29.89 in 10.0 mi SSE 8.1 mph 17.3 mph N/A   Overcast
8:55 PM 68.0 °F 61.2 °F 79% 29.88 in 10.0 mi SE 9.2 mph - N/A   Overcast
9:15 PM 68.0 °F 61.3 °F 79% 29.88 in 10.0 mi SE 5.8 mph - N/A   Overcast
9:35 PM 67.6 °F 61.5 °F 81% 29.88 in 10.0 mi SE 5.8 mph - N/A   Overcast
9:55 PM 67.6 °F 61.7 °F 81% 29.88 in 10.0 mi SE 6.9 mph - N/A   Overcast
10:15 PM 67.6 °F 61.7 °F 81% 29.88 in 10.0 mi SE 5.8 mph - N/A   Overcast
10:35 PM 67.6 °F 61.7 °F 81% 29.90 in 10.0 mi SE 6.9 mph - N/A   Overcast
10:55 PM 67.6 °F 61.7 °F 81% 29.90 in 10.0 mi Calm Calm - N/A   Overcast
11:15 PM 67.3 °F 61.9 °F 83% 29.90 in 10.0 mi SE 3.5 mph - N/A   Overcast
11:35 PM 66.7 °F 62.2 °F 85% 29.89 in 10.0 mi SE 3.5 mph - N/A   Drizzle
11:55 PM 66.2 °F 62.2 °F 87% 29.89 in 10.0 mi SE 3.5 mph - N/A   Overcast